Погода в Ербогачене

Погода в Ербогачене : погода сейчас, прогноз погоды и архив. Всё, что Вы хотите узнать о погоде в Ербогачене!

Хотите узнать прогноз погоды в Ербогачене? Тогда Вам сюда: Погода в Ербогачене

Поиск расширенной информации на нашем сайте:

Другие новости

Новости СМИ2

Главная страница сайта

Новости сайта

03.07.2017

Напоминаем, что на нашем специализированном сайте Метеоцентр.Азия вы можете получить высокодетализированные автоматические прогнозы погоды по пунктам России, СНГ и мира в авиационном формате (включающие направление и скорость ветра, видимость, явления погоды, количество и форму облачности, нижнюю и верхнюю границу облачности).


Погода в Ербогачене - сегодня

Время (UTC), дата Ветер
(°,м/с) 
Видим.   Явления Облачность Т
(°С)
Тd
(°С)
f(%) Тe
(°С)
Pmin
(гПа)
dP
(гПа)
Po
(мм)
O2
(г/м3)
Тmin Tmax R s Состояние
почвы
21 14.08.18 350 (С) 20000 м  дым{ливн. осадки}  10/10 300 м кучево-дожд. 
[Cb cap]
+14.8 +14.4 97 +23  1009.5  -1  732  277           
00 15.08.18 360 (С) 4000 м  дымка{ливн. осадки}  10/10 300 м кучево-дожд. 
[Cb cap]
+14.8 +14.1 96 +23  1008.8  -0.7  732  277  +14.7       
03 15.08.18 020 (С) 4000 м  слаб. ливневой дождь  10/10 300 м кучево-дожд. 
[Cb cap]
+15.2 +14.5 96 +25  1008.2  -0.5  732  276           
06 15.08.18 350 (С) 20000 м  слаб. ливневой дождь  10/10 300 м кучево-дожд. 
[Cb cap]
+16.4 +15.4 94 +27  1006.8  -1.2  731  274           
09 15.08.18 040 (СВ) 20000 м  слаб. ливневой дождь  10/10 300 м кучево-дожд. 
[Cb cap]
+16.8 +15.8 94 +29  1006.3  -0.5  730  274           
12 15.08.18 020 (С) 20000 м  осадки на расстоянии{ливн. осадки}  10/10 300 м кучево-дожд. 
[Cb cap]
+17 +16.3 96 +30  1006.2  730  273    +17.1     
15 15.08.18 тихо ()   н/о  туман на расстоянии  3/3 1000 м 
[Sc diur, vesp]
+13.9 +12.8 93 +20  1007.9  1.2  731  278           
18 15.08.18 тихо ()   н/о  туман на расстоянии  1/0 средняя, верхняя 
[Ac lent|Ci fib]
+9.4 +9 97 +10  1007.9  -0.5  731  283           
21 15.08.18 тихо ()   20000 м  туман на расстоянии  6/0 средняя, верхняя 
[Ac lent|Cs]
+8.2 +7.8 97 +8  1008.1  0.1  731  285           
00 16.08.18 тихо ()   20000 м  туман на расстоянии  10/10 600 м кучево-дожд. 
[Cb cap]
+10 +9.6 97 +11  1007.4  -0.5  731  282  +6.7         
03 16.08.18 170 (Ю) 20000 м  осадки на расстоянии  10/10 600 м кучево-дожд. 
[Cb cap]
+13.8 +10.6 81 +17  1008.7  1.7  732  279           
06 16.08.18 310 (СЗ) 20000 м  осадки на расстоянии  10/10 600 м кучево-дожд. 
[Cb cap]
+15.5 +10.4 72 +19  1007  0.1  731  277           
09 16.08.18 тихо ()   20000 м  осадки на расстоянии  10/10 600 м кучево-дожд. 
[Cb cap]
+15.6 +10.5 72 +18  1007.2  0.2  731  277           
12 16.08.18 тихо ()   20000 м    10/4 1000 м средняя, верхняя 
[Sc diur, vesp|Ac lent|Ci ing]
+14.3 +11.5 83 +18  1007.6  0.2  731  278    +15.7       
15 16.08.18 тихо ()   н/о  туман на расстоянии  9/9 600 м кучево-дожд. 
[Cb cap]
+10.2 +9.8 97 +12  1007.3  -0.7  730  282           
18 16.08.18 тихо ()   н/о  туман  10/10 600 м кучево-дожд. 
[Cb cap]
+10.7 +10.5 99 +13  1006.6  -0.6  730  281           
21 16.08.18 340 (С) 0500 м  туман  10/10 600 м кучево-дожд. 
[Cb cap]
+10.7 +10.5 99 +14  1005.8  -0.8  729  281           
00 17.08.18 320 (СЗ) 4000 м  туман на расстоянии  10/10 300 м кучево-дожд. 
[Cb cap]
+11.2 +10.8 97 +15  1005.1  -0.6  729  280  +10.1         
03 17.08.18 280 (З) 20000 м  слаб. ливневой дождь  10/10 300 м кучево-дожд. 
[Cb cap]
+12.2 +11.8 97 +17  1004  -1  728  279           
06 17.08.18 320 (СЗ) 20000 м  слаб. ливневой дождь  10/10 300 м кучево-дожд. 
[Cb cap]
+13.4 +12.7 96 +20  1002.8  -1.1  727  277           
09 17.08.18 080 (В) 20000 м  слаб. ливневой дождь  10/10 300 м кучево-дожд. 
[Cb cap]
+13.5 +12.4 93 +19  1002.8  727  277           
12 17.08.18 300 (СЗ) 20000 м  слаб. ливневой дождь  10/10 300 м кучево-дожд. 
[Cb cap]
+12.6 +11.5 93 +17  1002.3  -0.5  727  278    +13.6     
15 17.08.18 260 (З) н/о  слаб. ливневой дождь  10/10 300 м кучево-дожд. 
[Cb cap]
+13.3 +13.1 99 +20  1000  -2.2  725  276           
18 17.08.18 290 (З) н/о  слаб. ливневой дождь  10/10 300 м кучево-дожд. 
[Cb cap]
+14.2 +13.8 97 +23  998.4  -1.3  724  275           
21 17.08.18 310 (СЗ) 20000 м  слаб. ливневой дождь  10/10 300 м кучево-дожд. 
[Cb cap]
+14 +14 100 +23  997.6  -0.8  724  274           
Время (UTC), дата Ветер
(°,м/с) 
Видим.   Явления Облачность Т
(°С)
Тd
(°С)
f(%) Тe
(°С)
Pmin
(гПа)
dP
(гПа)
Po
(мм)
O2
(г/м3)
Тmin Tmax R s Состояние
почвы

Для получения пояснительной информации подведите курсор к названию столбца.

ПОГОДА в Ербогачене - архив

Всё, что Вы хотите узнать о погоде в Ербогачене - удобно и подробно!

Выберите нужную дату (начиная с 1 января 2015* года) и нажмите кнопку "Найти".
Будут отображены архивные сводки погоды по пункту Ербогачен, начиная с указанной даты.


Отображать данные в формате CSV (для использования в таблицах Excel)


Внимание! Наш архив погоды предназначен исключительно для личного некоммерческого использования в познавательных целях. Если Вам необходимы официальные справки о состоянии погоды (для производственных, юридических, коммерческих и т.п. целей), обращайтесь в органы Росгидромета.

*Примечание: данная дата относится к архиву по метеостанциям СССР (Россия, СНГ, Балтия).
Архив по метеостанциям Зарубежной Европы и Азии (кроме Китая) хранится 10 дней, по другим регионам земного шара (Китай, Африка, Америка, Австралия, Океания) - 1 день.

Ербогачен - район местоположения метеостанции


Название, широта, долгота, высота метеостанции:
Ербогачен 61.3°ш. 108°д. 291 м над ур. моря [Российская Федерация]

Дополнительная информация

В oтличие oт бoльшинства пoгoдных сайтoв мы публикуем пoдрoбную метеoинфoрмацию в детальнoм прoфессиoнальнoм фoрмате.

Характеристики температуры и влажнoсти вoздуха измеряются на высoте 2 м в тени вдали oт зданий и деревьев.
Скoрoсть ветра измеряется на высoте 10 м (на урoвне рoста челoвека скoрoсть ветра ниже в 1.5-2 раза). Если метеoстанция нахoдится в гoрoде или в лесу, тo скoрoсть ветра занижена на 2-4 м/с пo сравнению с oткрытым местoм. Скoрoсть ветра над акватoриями крупных рек и oзёр, а также на вершинах хoлмoв на 2-5 м/с выше, чем в oбычных услoвиях.
Атмoсфернoе давление в разных тoчках местнoсти мoжет значительнo oтличаться oт давления на метеoстанции, в зависимoсти oт услoвий рельефа (при пoдъёме на 10 м давление пoнижается примернo на 1 мм рт.ст.).